Regional Weather Roundup
Issued by NWS Cleveland, OH

Home | Current Version | Previous Version | Text Only | Print | Product List | Glossary Off
Versions: 1 2 3 4 5 6 7 8 9 10 11 12 13 14 15 16 17 18 19 20 21 22 23 24 25 26 27 28 29 30 31 32 33 34 35 36 37 38 39 40 41 42 43 44 45 46 47 48 49 50

000
ASUS41 KCLE 310502
RWRCLE
OHIO REGIONAL WEATHER ROUNDUP
NATIONAL WEATHER SERVICE CLEVELAND, OH
100 AM EDT THU JUL 31 2014

NOTE: "FAIR" INDICATES FEW OR NO CLOUDS BELOW 12,000 FEET WITH NO
SIGNIFICANT WEATHER AND/OR OBSTRUCTIONS TO VISIBILITY.

OHZ001>008-015>018-024>027-034-035-043-044-310600-
   NORTHWEST OHIO

CITY           SKY/WX    TMP DP  RH WIND       PRES   REMARKS
DEFIANCE       CLEAR     61  54  77 CALM      30.03R
FINDLAY        PTCLDY    64  58  80 SW5       30.02R
TOLEDO EXPRESS CLEAR     56  54  93 CALM      30.01S
TOLEDO EXEC    CLEAR     61  56  83 SW3       30.02S
LIMA           PTCLDY    67  60  78 W6        30.04R
$$

OHZ009>014-019>023-028>033-038-089-310600-
   NORTHEAST OHIO

CITY           SKY/WX    TMP DP  RH WIND       PRES   REMARKS
CLE-HOPKINS    PTCLDY    61  58  90 S10       30.02F
CLE-LAKEFRONT  PTCLDY    64  58  80 SE5       29.99S
CUY CO. ARPT   NOT AVBL
LORAIN-ELYRIA  PTCLDY    63  59  87 SW7       30.02F
ASHTABULA      LGT RAIN  61  58  90 S7        30.02S
AKRON-CANTON   CLOUDY    62  58  86 S3        30.04S
WOOSTER        PTCLDY    61  59  93 SW7       30.04S
MANSFIELD      MOCLDY    62  60  93 SW6       30.04S
YOUNGSTOWN     TSTM      61  58  90 SW6       30.03F
$$

OHZ042-051>053-060>062-070>072-077>081-310600-
  SOUTHWEST OHIO

CITY           SKY/WX    TMP DP  RH WIND       PRES   REMARKS
CINC-COVINGTON MOCLDY    68  60  75 CALM      30.07S
CINC-LUNKEN    MOCLDY    67  63  87 CALM      30.06S
HAMILTON       MOCLDY    62  61  96 CALM      30.07S
DAYTON         LGT RAIN  65  61  87 CALM      30.08R
WRIGHT-PAT AFB NOT AVBL
DAYTON GENERAL PTCLDY    65  60  84 CALM      30.06R
WILMINGTON     PTCLDY    62  59  90 SW3       30.07R
$$

OHZ036-037-039>041-045>050-054>059-063>069-073>076-082>088-310600-
  CENTRAL AND SOUTHEAST OHIO

CITY           SKY/WX    TMP DP  RH WIND       PRES   REMARKS
COLUMBUS       LGT RAIN  66  60  81 S5        30.05S
OSU AIRPORT    PTCLDY    64  58  80 SW6       30.05S
BOLTON FIELD   NOT AVBL
RICKENBACK AFB NOT AVBL
NEWARK         CLEAR     63  59  87 S3        30.05S
MARION         CLOUDY    66  60  81 SW7       30.04R
LANCASTER      CLOUDY    62  59  90 CALM      30.07R
ZANESVILLE     CLOUDY    62  58  86 CALM      30.06S
NEW PHILLY     PTCLDY    57  57 100 SE3       30.06S FOG
$$


USA.gov is the U.S. government's official web portal to all federal, state and local government web resources and services.